Wetbulb
67.37 65.38 64.86 63.96 64.04 61.67 61.74 61.44 63.39 61.85 61.59 61.44 60.53 59.39 59.46 58.38 58.37 59.24 57.91 58.32 58.90 57.04
67.52 66.25 66.60 67.29 65.55 61.91 62.78 62.83 62.21 61.79 61.86 61.17 60.35 60.14 60.67 57.69 57.97 58.83 59.07 58.89 58.25 57.38
67.38 66.54 66.19 62.55 60.08 60.14 61.31 62.65 62.91 61.49 61.70 61.34 60.19 60.24 59.67 57.42 58.88 58.40 57.32 56.99 59.26 57.97
67.18 65.07 62.96 59.93 59.63 58.90 60.53 60.97 60.80 61.84 61.70 61.04 59.62 60.13 59.49 59.16 58.31 57.17 58.20 58.70 57.75 57.78
66.57 65.08 62.77 60.83 59.26 58.91 59.63 61.27 59.84 59.97 61.08 60.29 60.75 60.26 59.35 58.23 57.93 56.95 56.40 57.59 57.65 55.89
66.20 65.47 64.10 63.21 63.22 60.65 59.50 60.89 60.08 59.24 59.51 61.53 60.69 59.61 59.34 57.67 56.89 57.24 57.31 56.98 57.38 57.30
66.01 65.34 64.84 64.09 63.86 62.23 60.96 59.86 59.79 60.29 60.44 59.38 59.08 58.28 56.86 56.65 57.13 54.43 55.08 55.85 56.44 56.97
67.00 67.45 66.28 64.99 63.75 61.76 61.65 60.68 60.47 60.21 59.95 59.65 58.65 58.13 57.92 56.88 54.41 53.43 53.84 54.96 55.46 57.48
66.46 66.86 65.84 64.72 63.17 62.40 61.84 60.19 60.31 60.50 59.69 58.35 58.46 52.39 51.82 55.03 54.07 53.76 53.54 53.23 55.69 56.90
65.47 65.92 65.74 64.99 63.84 63.36 60.09 61.32 60.74 57.83 58.60 58.72 58.88 48.92 49.72 51.89 53.87 52.83 52.55 52.75 54.69 54.88
64.71 64.78 64.69 63.74 63.30 62.42 63.45 62.38 58.09 57.43 58.40 59.32 58.30 47.84 47.62 49.69 53.25 53.04 53.41 54.28 55.56 55.43
63.26 63.11 63.57 62.78 62.62 63.51 62.18 60.83 58.86 59.40 58.38 57.26 55.35 47.03 47.05 50.13 53.09 53.40 54.38 55.39 55.89 55.91
62.50 63.20 63.21 63.66 63.91 63.49 62.77 61.12 59.64 58.22 57.34 55.47 54.31 46.33 46.56 50.33 53.70 52.93 53.09 55.79 56.43 51.82
61.87 62.19 62.89 63.96 64.11 63.89 61.42 60.54 59.31 57.51 56.68 55.39 53.91 49.60 46.51 46.98 53.98 53.61 53.33 53.41 54.60 56.60
MSLP
1015.77 1016.21 1016.52 1016.97 1016.97 1017.58 1017.32 1017.48 1017.73 1018.23 1018.45 1018.47 1018.80 1019.05 1019.08 1019.30 1019.38 1019.55 1019.97 1019.97 1019.79 1019.09
1015.45 1015.94 1015.98 1016.20 1016.81 1017.23 1017.20 1016.78 1017.51 1018.04 1018.33 1018.44 1018.53 1018.97 1019.06 1019.10 1019.29 1019.70 1020.15 1019.98 1020.14 1019.84
1014.91 1015.48 1015.86 1016.58 1017.05 1017.36 1017.27 1016.93 1017.13 1017.75 1017.94 1018.21 1018.62 1018.94 1018.88 1019.33 1019.60 1019.65 1019.82 1019.98 1019.85 1019.92
1014.55 1015.30 1015.91 1016.39 1016.72 1016.89 1017.12 1017.11 1017.28 1017.65 1017.91 1018.10 1018.39 1018.59 1018.85 1018.73 1018.83 1019.47 1019.56 1019.60 1019.80 1019.51
1014.54 1015.11 1015.57 1016.00 1016.37 1016.71 1017.02 1017.15 1017.28 1017.37 1017.56 1017.90 1017.88 1018.18 1018.63 1018.92 1018.59 1019.29 1019.35 1019.05 1019.15 1019.41
1014.10 1014.48 1015.06 1015.50 1015.87 1016.25 1016.54 1016.72 1016.84 1017.10 1017.11 1016.85 1017.40 1017.82 1018.25 1018.62 1018.91 1018.98 1018.82 1018.97 1019.06 1019.05
1013.89 1014.19 1014.49 1014.98 1015.32 1015.79 1016.15 1016.27 1016.50 1016.64 1016.55 1016.75 1017.12 1017.41 1017.79 1018.29 1018.50 1018.87 1019.38 1019.40 1019.24 1019.05
1013.40 1013.63 1013.98 1014.44 1014.98 1015.48 1015.85 1016.03 1016.15 1016.17 1016.32 1016.57 1016.93 1017.10 1017.63 1018.01 1018.48 1019.16 1019.40 1019.42 1019.05 1018.83
1013.15 1013.22 1013.70 1014.09 1014.63 1014.94 1015.17 1015.50 1015.70 1015.74 1015.96 1016.26 1016.43 1016.67 1017.30 1017.83 1018.57 1018.90 1019.07 1019.31 1018.91 1018.77
1012.97 1013.07 1013.34 1013.66 1014.14 1014.50 1015.02 1015.10 1015.11 1015.49 1015.73 1015.86 1016.21 1016.54 1017.18 1017.80 1018.32 1018.65 1018.96 1019.15 1018.96 1018.84
1012.71 1012.88 1013.05 1013.42 1013.84 1014.31 1014.27 1014.44 1015.02 1015.22 1015.18 1015.29 1015.64 1016.42 1016.91 1017.76 1018.09 1018.16 1018.59 1018.94 1018.68 1018.46
1012.33 1012.56 1012.95 1013.22 1013.53 1013.75 1013.94 1014.34 1014.59 1014.53 1014.71 1014.97 1015.49 1016.16 1016.64 1017.33 1017.76 1017.89 1018.15 1017.97 1017.91 1017.92
1012.40 1012.32 1012.44 1012.86 1013.03 1013.34 1013.49 1013.68 1014.08 1014.39 1014.64 1014.84 1015.47 1016.10 1016.59 1017.11 1017.34 1017.54 1017.55 1017.33 1017.37 1017.35
1012.62 1012.60 1012.24 1012.27 1012.68 1012.88 1013.20 1013.50 1013.77 1014.17 1014.44 1014.84 1015.18 1015.90 1016.38 1016.76 1017.00 1016.93 1016.92 1016.90 1016.64 1016.92
Wind_Speed
9 6 7 10 9 9 8 8 11 9 10 9 8 6 5 5 4 3 4 4 6 7
8 10 9 10 10 5 7 7 11 11 9 9 8 6 5 4 4 2 3 4 5 6
8 7 6 5 7 6 4 6 10 11 11 10 8 7 6 4 5 5 5 5 6 5
5 6 6 7 8 6 4 4 4 10 11 10 10 9 8 7 4 7 4 6 9 7
7 7 9 10 10 8 7 6 7 8 10 10 12 11 7 7 8 6 9 9 6 6
6 8 9 9 11 11 11 8 6 8 12 15 13 11 11 5 6 11 6 5 5 7
4 7 8 9 10 11 9 8 9 11 11 8 8 9 7 9 6 5 2 6 8 8
6 7 8 7 8 9 9 8 6 8 8 7 8 9 12 8 7 5 2 8 7 7
6 4 5 6 8 8 8 9 12 12 10 9 9 11 14 10 7 6 3 5 10 7
4 5 5 6 7 10 8 12 12 8 10 13 11 14 14 12 7 5 3 5 9 9
3 3 4 4 5 7 8 8 8 10 13 13 10 15 15 11 7 5 3 8 10 9
6 3 3 5 5 4 3 7 9 7 9 5 9 15 16 12 7 5 8 9 9 11
7 7 7 6 5 5 7 7 6 8 7 8 9 13 13 10 5 7 8 8 8 10
7 8 9 6 7 5 3 5 6 8 5 7 9 11 16 13 6 8 7 8 8 3
Wind_Direction
226 219 207 192 208 206 208 200 170 191 191 202 181 189 176 188 227 192 260 278 298 304
221 224 213 210 198 215 232 191 172 193 198 199 193 171 171 241 169 47 257 239 271 281
199 215 224 174 186 224 268 276 158 196 198 193 193 207 178 186 184 205 254 258 221 265
201 206 185 194 200 194 221 240 183 212 201 197 201 196 197 207 245 196 219 262 275 247
191 201 202 208 203 194 217 216 213 194 215 213 211 203 196 214 206 227 215 224 239 267
198 206 204 209 208 197 205 212 194 207 217 219 208 202 207 190 225 234 255 329 281 260
219 208 217 214 203 208 206 201 209 228 228 207 205 206 175 199 210 76 324 290 271 268
241 214 213 210 211 214 215 219 227 212 218 203 205 196 200 175 147 167 259 281 273 274
229 226 204 208 212 212 216 217 222 226 210 209 215 183 158 166 166 179 186 273 268 290
266 255 254 234 219 229 220 222 216 217 224 222 219 158 149 160 174 161 187 266 289 295
354 293 270 282 266 249 233 228 213 221 227 230 211 163 157 158 161 159 200 252 255 259
354 351 305 267 251 258 241 239 238 238 226 217 152 162 162 163 175 183 231 249 261 273
354 340 340 330 303 232 216 259 250 236 226 198 169 172 163 174 178 213 238 250 272 258
345 335 329 334 314 305 221 244 246 242 220 196 176 176 185 185 189 218 233 245 261 336